Regional Weather Roundup
Issued by NWS Goodland, KS

Home | Current Version | Previous Version | Graphics & Text | Print | Product List | Glossary On
Versions: 1 2 3 4 5 6 7 8 9 10 11 12 13 14 15 16 17 18 19 20 21 22 23 24 25 26 27 28 29 30 31 32 33 34 35 36 37 38 39 40 41 42 43 44 45 46 47 48 49 50
000
ASUS43 KGLD 022308
RWRGLD

GOODLAND FORECAST AREA HOURLY WEATHER ROUNDUP
NATIONAL WEATHER SERVICE GOODLAND KS
500 PM MDT MON MAY 02 2016

...OFFICIAL OBSERVATIONS...

CITY           SKY/WX    TMP DP  RH WIND       PRES   REMARKS
GOODLAND KS    SUNNY     61  29  29 NW13      30.07F
HILL CITY KS   SUNNY     66  33  29 VRB7      30.06F
IMPERIAL NEB   SUNNY     60  29  30 NW8       30.07F
MCCOOK NEB     CLOUDY    62  34  35 NW13      30.05F
AKRON CO       SUNNY     56  24  29 W8        30.09F
BURLINGTON CO  CLOUDY    59  19  21 NW10      30.10F
LIMON CO       SUNNY     51  18  27 W6        30.13F
$$

...UNOFFICIAL OBSERVATIONS...

CITY           SKY/WX    TMP DP  RH WIND       PRES   REMARKS
COLBY KS       MOSUNNY   61  39  44 NW9       30.08S
LENORA KS        N/A     63  32  31 MISG        N/A
NORTON KS      SUNNY     61  27  27 W3        30.04F
SHARON SPRINGS   N/A     63  36  36 NE6         N/A
TRIBUNE KS     SUNNY     63  32  31 NW5       30.11
KIT CARSON CO    N/A     62  26  25 MISG        N/A
YUMA CO          N/A     60  31  33 NW5G12      N/A
$$




USA.gov is the U.S. government's official web portal to all federal, state and local government web resources and services.